Hot Springs, VA

7:38 AM EST on December 12, 2017 (GMT -0500)
Ingalls

Weather History for KHSP - November, 2012

Change the Weather History Date:

Monday, November 5, 2012

  Actual Average Record
Temperature  
Mean Temperature 33 °F -  
Max Temperature 42 °F 49 °F 69 °F (2003)
Min Temperature 24 °F 35 °F 24 °F (2012)
Degree Days  
Heating Degree Days 32    
Moisture  
Dew Point 23 °F    
Average Humidity 72    
Maximum Humidity 93    
Minimum Humidity 42    
Precipitation  
Precipitation 0.00 in - - ()
Sea Level Pressure  
Sea Level Pressure 30.03 in    
Wind  
Wind Speed 10 mph (NW)    
Max Wind Speed 18 mph    
Max Gust Speed 24 mph    
Visibility 10 miles    
Events      
Averages and records for this station are not official NWS values.
T = Trace of Precipitation, MM = Missing Value Source: NWS Daily Summary

Daily Weather History Graph

Daily Weather History Graph

Search for Another Location

Airport or City:

Trip Planner

Search our weather history database for the weather conditions in past years. The results will help you decide how hot, cold, wet, or windy it might be!

Date:

Astronomy

Nov. 05, 2012 Rise Set
Actual Time 6:49 AM EST 5:15 PM EST
Civil Twilight 6:22 AM EST 5:43 PM EST
Nautical Twilight 5:50 AM EST 6:14 PM EST
Astronomical Twilight 5:20 AM EST 6:45 PM EST
Moon 10:51 PM EST (11/5) 12:07 PM EST (11/5)
Length of Visible Light 11h 21m
Length of Day
10h 26m
Waning Gibbous, 63% of the Moon is Illuminated
Nov 5
Waning Gibbous
Nov 6
Last Quarter
Nov 13
New
Nov 20
First Quarter
Nov 28
Full

Hourly Weather History & Observations

Time (EST) Temp. Windchill Dew Point Humidity Pressure Visibility Wind Dir Wind Speed Gust Speed Precip Events Conditions
12:15 AM 28.4 °F 18.5 °F 24.8 °F 86% 30.00 in 10.0 mi WNW 11.5 mph 19.6 mph N/A   Clear
12:35 AM 28.4 °F 18.0 °F 24.8 °F 86% 30.00 in 10.0 mi NW 12.7 mph 20.7 mph N/A   Clear
12:55 AM 28.4 °F 18.0 °F 24.8 °F 86% 30.00 in 10.0 mi NW 12.7 mph 21.9 mph N/A   Scattered Clouds
1:15 AM 28.4 °F 17.5 °F 24.8 °F 86% 29.99 in 10.0 mi WNW 13.8 mph - N/A   Clear
1:35 AM 28.4 °F 17.0 °F 24.8 °F 86% 29.99 in 10.0 mi WNW 15.0 mph - N/A   Clear
1:55 AM 28.4 °F 16.6 °F 24.8 °F 86% 29.99 in 10.0 mi NW 16.1 mph - N/A   Clear
2:15 AM 28.4 °F 17.0 °F 24.8 °F 86% 29.99 in 10.0 mi NW 15.0 mph 20.7 mph N/A   Clear
2:35 AM 26.6 °F 15.2 °F 24.8 °F 93% 29.99 in 10.0 mi NW 13.8 mph - N/A   Clear
2:55 AM 26.6 °F 16.8 °F 24.8 °F 93% 29.99 in 10.0 mi NW 10.4 mph - N/A   Clear
3:15 AM 26.6 °F 16.8 °F 24.8 °F 93% 29.99 in 10.0 mi NW 10.4 mph - N/A   Clear
3:35 AM 26.6 °F 15.7 °F 24.8 °F 93% 29.99 in 10.0 mi WNW 12.7 mph - N/A   Clear
3:55 AM 26.6 °F 16.2 °F 23.0 °F 86% 29.99 in 10.0 mi WNW 11.5 mph - N/A   Clear
4:15 AM 26.6 °F 15.7 °F 23.0 °F 86% 29.99 in 10.0 mi WNW 12.7 mph - N/A   Clear
4:35 AM 26.6 °F 15.7 °F 23.0 °F 86% 29.99 in 10.0 mi WNW 12.7 mph - N/A   Clear
4:55 AM 26.6 °F 15.7 °F 23.0 °F 86% 29.99 in 10.0 mi WNW 12.7 mph - N/A   Clear
5:15 AM 26.6 °F 15.7 °F 23.0 °F 86% 30.00 in 10.0 mi NW 12.7 mph - N/A   Clear
5:35 AM 26.6 °F 14.7 °F 23.0 °F 86% 30.00 in 10.0 mi NW 15.0 mph - N/A   Clear
5:55 AM 24.8 °F 13.4 °F 23.0 °F 93% 30.01 in 10.0 mi NW 12.7 mph 16.1 mph N/A   Clear
6:15 AM 24.8 °F 12.4 °F 21.2 °F 86% 30.01 in 10.0 mi NW 15.0 mph - N/A   Clear
6:35 AM 24.8 °F 13.4 °F 21.2 °F 86% 30.01 in 10.0 mi WNW 12.7 mph 20.7 mph N/A   Clear
6:55 AM 24.8 °F 13.4 °F 21.2 °F 86% 30.01 in 10.0 mi WNW 12.7 mph - N/A   Clear
7:15 AM 24.8 °F 11.9 °F 21.2 °F 86% 30.01 in 10.0 mi NW 16.1 mph - N/A   Clear
7:35 AM 24.8 °F 11.9 °F 21.2 °F 86% 30.02 in 10.0 mi WNW 16.1 mph - N/A   Clear
7:55 AM 24.8 °F 12.9 °F 21.2 °F 86% 30.02 in 10.0 mi WNW 13.8 mph 24.2 mph N/A   Clear
8:15 AM 24.8 °F 11.1 °F 21.2 °F 86% 30.02 in 10.0 mi WNW 18.4 mph - N/A   Clear
8:35 AM 26.6 °F 15.2 °F 21.2 °F 80% 30.02 in 10.0 mi WNW 13.8 mph 19.6 mph N/A   Clear
8:55 AM 26.6 °F 15.2 °F 21.2 °F 80% 30.03 in 10.0 mi NW 13.8 mph - N/A   Clear
9:15 AM 26.6 °F 16.2 °F 21.2 °F 80% 30.03 in 10.0 mi NW 11.5 mph 18.4 mph N/A   Clear
9:35 AM 28.4 °F 19.1 °F 21.2 °F 74% 30.03 in 10.0 mi WNW 10.4 mph - N/A   Clear
9:55 AM 28.4 °F 19.7 °F 21.2 °F 74% 30.04 in 10.0 mi NW 9.2 mph - N/A   Clear
10:15 AM 30.2 °F 21.3 °F 21.2 °F 69% 30.04 in 10.0 mi NW 10.4 mph - N/A   Clear
10:35 AM 30.2 °F 22.6 °F 23.0 °F 75% 30.05 in 10.0 mi West 8.1 mph - N/A   Clear
10:55 AM 32.0 °F 23.6 °F 23.0 °F 69% 30.04 in 10.0 mi NW 10.4 mph - N/A   Clear
11:15 AM 33.8 °F 27.7 °F 24.8 °F 70% 30.05 in 10.0 mi WNW 6.9 mph - N/A   Clear
11:35 AM 33.8 °F 27.7 °F 23.0 °F 65% 30.05 in 10.0 mi West 6.9 mph - N/A   Clear
11:55 AM 35.6 °F 30.7 °F 23.0 °F 60% 30.05 in 10.0 mi West 5.8 mph - N/A   Clear
12:15 PM 35.6 °F 29.9 °F 23.0 °F 60% 30.04 in 10.0 mi NW 6.9 mph - N/A   Clear
12:35 PM 37.4 °F 31.4 °F 23.0 °F 56% 30.04 in 10.0 mi NNW 8.1 mph - N/A   Clear
12:55 PM 37.4 °F 32.1 °F 21.2 °F 52% 30.03 in 10.0 mi WNW 6.9 mph - N/A   Clear
1:15 PM 39.2 °F 34.2 °F 21.2 °F 49% 30.03 in 10.0 mi West 6.9 mph - N/A   Clear
1:35 PM 39.2 °F 34.2 °F 21.2 °F 49% 30.02 in 10.0 mi NNW 6.9 mph - N/A   Clear
1:55 PM 39.2 °F - 19.4 °F 45% 30.02 in 10.0 mi Calm Calm - N/A   Clear
2:15 PM 39.2 °F 35.9 °F 19.4 °F 45% 30.02 in 10.0 mi West 4.6 mph - N/A   Clear
2:35 PM 41.0 °F 39.0 °F 19.4 °F 42% 30.02 in 10.0 mi WNW 3.5 mph - N/A   Clear
2:55 PM 41.0 °F 36.4 °F 19.4 °F 42% 30.02 in 10.0 mi WNW 6.9 mph - N/A   Clear
3:15 PM 41.0 °F 36.4 °F 19.4 °F 42% 30.02 in 10.0 mi NNW 6.9 mph - N/A   Clear
3:35 PM 42.8 °F 38.6 °F 21.2 °F 42% 30.02 in 10.0 mi NW 6.9 mph - N/A   Clear
3:55 PM 42.8 °F 40.1 °F 21.2 °F 42% 30.03 in 10.0 mi WNW 4.6 mph - N/A   Clear
4:35 PM 39.2 °F 37.0 °F 19.4 °F 45% 30.03 in 10.0 mi NNW 3.5 mph - N/A   Clear
5:15 PM 39.2 °F - 19.4 °F 45% 30.03 in 10.0 mi Calm Calm - N/A   Clear
5:35 PM 37.4 °F - 21.2 °F 52% 30.04 in 10.0 mi Calm Calm - N/A   Clear
5:55 PM 37.4 °F 34.9 °F 21.2 °F 52% 30.04 in 10.0 mi North 3.5 mph - N/A   Clear
6:15 PM 37.4 °F - 21.2 °F 52% 30.05 in 10.0 mi Calm Calm - N/A   Clear
6:35 PM 35.6 °F - 21.2 °F 56% 30.06 in 10.0 mi Calm Calm - N/A   Clear
6:55 PM 35.6 °F - 21.2 °F 56% 30.06 in 10.0 mi Calm Calm - N/A   Clear
7:15 PM 37.4 °F - 21.2 °F 52% 30.06 in 10.0 mi Calm Calm - N/A   Clear
7:55 PM 33.8 °F 30.8 °F 24.8 °F 70% 30.06 in 10.0 mi ENE 3.5 mph - N/A   Clear
8:15 PM 33.8 °F 27.7 °F 24.8 °F 70% 30.07 in 10.0 mi ENE 6.9 mph - N/A   Clear
8:35 PM 33.8 °F 27.7 °F 24.8 °F 70% 30.07 in 10.0 mi East 6.9 mph - N/A   Clear
8:55 PM 32.0 °F 25.6 °F 24.8 °F 75% 30.08 in 10.0 mi ENE 6.9 mph - N/A   Clear
9:15 PM 32.0 °F 25.6 °F 24.8 °F 75% 30.09 in 10.0 mi ENE 6.9 mph - N/A   Clear
9:35 PM 30.2 °F 24.3 °F 24.8 °F 80% 30.09 in 10.0 mi East 5.8 mph - N/A   Clear
9:55 PM 30.2 °F 23.4 °F 24.8 °F 80% 30.08 in 10.0 mi ENE 6.9 mph - N/A   Clear
10:15 PM 30.2 °F 23.4 °F 24.8 °F 80% 30.08 in 10.0 mi ENE 6.9 mph - N/A   Clear
10:35 PM 30.2 °F 23.4 °F 24.8 °F 80% 30.07 in 10.0 mi East 6.9 mph - N/A   Clear
10:55 PM 28.4 °F 22.2 °F 24.8 °F 86% 30.08 in 10.0 mi ENE 5.8 mph - N/A   Clear
11:15 PM 28.4 °F 23.3 °F 24.8 °F 86% 30.07 in 10.0 mi East 4.6 mph - N/A   Clear
11:35 PM 28.4 °F 22.2 °F 24.8 °F 86% 30.07 in 10.0 mi East 5.8 mph - N/A   Clear
11:55 PM 28.4 °F 21.2 °F 24.8 °F 86% 30.06 in 10.0 mi East 6.9 mph - N/A   Clear